Time,TemperatureF,DewpointF,PressureIn,WindDirection,WindDirectionDegrees,WindSpeedMPH,WindSpeedGustMPH,Humidity,HourlyPrecipIn,Conditions,Clouds,dailyrainin,SoftwareType,DateUTC
2013-05-07 00:02:00,59.0,53.0,29.94,NE,45,0.0,2.0,80,0.00,,,0.01,,2013-05-07 07:02:00,
2013-05-07 00:11:00,59.0,53.0,29.94,NE,45,0.0,2.0,80,0.00,,,0.01,,2013-05-07 07:11:00,
2013-05-07 00:22:00,58.0,52.0,29.94,North,0,0.0,1.0,81,0.00,,,0.01,,2013-05-07 07:22:00,
2013-05-07 00:30:00,58.0,53.0,29.95,North,0,0.0,1.0,84,0.00,,,0.01,,2013-05-07 07:30:00,
2013-05-07 00:31:00,58.0,52.0,29.94,North,0,0.0,1.0,81,0.00,,,0.01,,2013-05-07 07:31:00,
2013-05-07 00:42:00,58.0,52.0,29.94,North,0,0.0,1.0,81,0.00,,,0.01,,2013-05-07 07:42:00,
2013-05-07 00:52:00,58.0,53.0,29.95,North,0,0.0,1.0,84,0.00,,,0.01,,2013-05-07 07:52:00,
2013-05-07 01:02:00,58.0,53.0,29.95,North,0,0.0,1.0,84,0.00,,,0.01,,2013-05-07 08:02:00,
2013-05-07 01:11:00,58.0,53.0,29.95,North,0,0.0,1.0,84,0.00,,,0.01,,2013-05-07 08:11:00,
2013-05-07 01:21:00,58.0,53.0,29.95,North,0,0.0,1.0,84,0.00,,,0.01,,2013-05-07 08:21:00,
2013-05-07 01:52:00,56.0,52.0,29.95,North,0,0.0,2.0,87,0.00,,,0.01,,2013-05-07 08:52:00,
2013-05-07 02:01:00,56.0,52.0,29.95,North,0,0.0,2.0,87,0.00,,,0.01,,2013-05-07 09:01:00,
2013-05-07 02:11:00,56.0,52.0,29.95,North,0,0.0,2.0,87,0.00,,,0.01,,2013-05-07 09:11:00,
2013-05-07 02:22:00,56.0,52.0,29.95,North,0,0.0,2.0,87,0.00,,,0.01,,2013-05-07 09:22:00,
2013-05-07 02:33:00,55.0,52.0,29.94,North,0,0.0,0.0,89,0.00,,,0.01,,2013-05-07 09:33:00,
2013-05-07 02:42:00,55.0,52.0,29.94,North,0,0.0,0.0,89,0.00,,,0.01,,2013-05-07 09:42:00,
2013-05-07 02:52:00,55.0,52.0,29.94,North,0,0.0,0.0,89,0.00,,,0.01,,2013-05-07 09:52:00,
2013-05-07 03:02:00,54.0,51.0,29.94,North,0,0.0,0.0,90,0.00,,,0.01,,2013-05-07 10:02:00,
2013-05-07 03:12:00,54.0,51.0,29.94,North,0,0.0,0.0,90,0.00,,,0.01,,2013-05-07 10:12:00,
2013-05-07 03:22:00,54.0,51.0,29.94,North,0,0.0,0.0,90,0.00,,,0.01,,2013-05-07 10:22:00,
2013-05-07 03:32:00,54.0,51.0,29.94,North,0,0.0,0.0,90,0.00,,,0.01,,2013-05-07 10:32:00,
2013-05-07 03:42:00,54.0,51.0,29.94,North,0,0.0,0.0,90,0.00,,,0.01,,2013-05-07 10:42:00,
2013-05-07 03:52:00,53.0,51.0,29.94,North,0,0.0,0.0,92,0.00,,,0.01,,2013-05-07 10:52:00,
2013-05-07 04:02:00,53.0,51.0,29.94,North,0,0.0,0.0,92,0.00,,,0.01,,2013-05-07 11:02:00,
2013-05-07 04:11:00,53.0,51.0,29.94,North,0,0.0,0.0,92,0.00,,,0.01,,2013-05-07 11:11:00,
2013-05-07 04:21:00,53.0,51.0,29.94,North,0,0.0,0.0,92,0.00,,,0.01,,2013-05-07 11:21:00,
2013-05-07 04:32:00,52.0,50.0,29.94,North,0,0.0,0.0,94,0.00,,,0.01,,2013-05-07 11:32:00,
2013-05-07 04:42:00,52.0,50.0,29.94,North,0,0.0,0.0,94,0.00,,,0.01,,2013-05-07 11:42:00,
2013-05-07 04:52:00,52.0,50.0,29.94,North,0,0.0,0.0,94,0.00,,,0.01,,2013-05-07 11:52:00,
2013-05-07 05:01:00,52.0,50.0,29.94,North,0,0.0,0.0,94,0.00,,,0.01,,2013-05-07 12:01:00,
2013-05-07 05:11:00,52.0,50.0,29.94,North,0,0.0,0.0,94,0.00,,,0.01,,2013-05-07 12:11:00,
2013-05-07 05:32:00,50.0,49.0,29.95,North,0,0.0,2.0,96,0.00,,,0.01,,2013-05-07 12:32:00,
2013-05-07 05:42:00,50.0,49.0,29.95,North,0,0.0,2.0,96,0.00,,,0.01,,2013-05-07 12:42:00,
2013-05-07 05:52:00,50.0,49.0,29.95,North,0,0.0,2.0,96,0.00,,,0.01,,2013-05-07 12:52:00,
2013-05-07 06:02:00,50.0,49.0,29.95,North,0,0.0,2.0,96,0.00,,,0.01,,2013-05-07 13:02:00,
2013-05-07 06:11:00,50.0,49.0,29.95,North,0,0.0,2.0,96,0.00,,,0.01,,2013-05-07 13:11:00,
2013-05-07 06:32:00,50.0,50.0,29.96,North,0,0.0,1.0,99,0.00,,,0.01,,2013-05-07 13:32:00,
2013-05-07 06:42:00,50.0,50.0,29.96,North,0,0.0,1.0,99,0.00,,,0.01,,2013-05-07 13:42:00,
2013-05-07 06:52:00,50.0,50.0,29.96,North,0,0.0,1.0,99,0.00,,,0.01,,2013-05-07 13:52:00,
2013-05-07 07:01:00,50.0,50.0,29.96,NE,48,0.0,2.0,99,0.00,,,0.01,,2013-05-07 14:01:00,
2013-05-07 07:11:00,50.0,50.0,29.96,NE,48,0.0,2.0,99,0.00,,,0.01,,2013-05-07 14:11:00,
2013-05-07 07:21:00,50.0,50.0,29.96,NE,48,0.0,2.0,99,0.00,,,0.01,,2013-05-07 14:21:00,
2013-05-07 07:31:00,51.0,51.0,29.98,North,0,0.0,0.0,99,0.00,,,0.01,,2013-05-07 14:31:00,
2013-05-07 07:42:00,51.0,51.0,29.98,North,0,0.0,0.0,99,0.00,,,0.01,,2013-05-07 14:42:00,
2013-05-07 07:52:00,51.0,51.0,29.98,North,0,0.0,0.0,99,0.00,,,0.01,,2013-05-07 14:52:00,
2013-05-07 08:01:00,51.0,51.0,29.98,North,0,0.0,0.0,99,0.00,,,0.01,,2013-05-07 15:01:00,
2013-05-07 08:12:00,51.0,51.0,29.98,North,0,0.0,0.0,99,0.00,,,0.01,,2013-05-07 15:12:00,
2013-05-07 08:22:00,54.0,53.0,29.99,North,0,0.0,2.0,97,0.00,,,0.01,,2013-05-07 15:22:00,
2013-05-07 08:33:00,54.0,53.0,29.99,North,0,0.0,2.0,97,0.00,,,0.01,,2013-05-07 15:33:00,
2013-05-07 08:42:00,54.0,53.0,29.99,North,0,0.0,2.0,97,0.00,,,0.01,,2013-05-07 15:42:00,
2013-05-07 08:53:00,54.0,53.0,29.99,North,0,0.0,2.0,97,0.00,,,0.01,,2013-05-07 15:53:00,
2013-05-07 09:03:00,58.0,56.0,30.00,North,0,0.0,1.0,93,0.00,,,0.01,,2013-05-07 16:03:00,
2013-05-07 09:12:00,58.0,56.0,30.00,North,0,0.0,1.0,93,0.00,,,0.01,,2013-05-07 16:12:00,
2013-05-07 09:32:00,64.0,56.0,30.01,NE,45,0.0,2.0,76,0.00,,,0.01,,2013-05-07 16:32:00,
2013-05-07 09:42:00,64.0,56.0,30.01,NE,45,0.0,2.0,76,0.00,,,0.01,,2013-05-07 16:42:00,
2013-05-07 09:52:00,64.0,56.0,30.01,NE,45,0.0,2.0,76,0.00,,,0.01,,2013-05-07 16:52:00,
2013-05-07 10:01:00,67.0,55.0,30.00,NE,45,1.0,4.0,66,0.00,,,0.01,,2013-05-07 17:01:00,
2013-05-07 10:21:00,67.0,55.0,30.00,NE,45,1.0,4.0,66,0.00,,,0.01,,2013-05-07 17:21:00,
2013-05-07 10:31:00,69.0,55.0,30.00,NNE,17,0.0,4.0,62,0.00,,,0.01,,2013-05-07 17:31:00,
2013-05-07 10:52:00,69.0,55.0,30.00,NNE,17,0.0,4.0,62,0.00,,,0.01,,2013-05-07 17:52:00,
2013-05-07 11:01:00,69.0,55.0,30.00,NNE,17,0.0,4.0,62,0.00,,,0.01,,2013-05-07 18:01:00,
2013-05-07 11:11:00,69.0,55.0,30.00,NNE,17,0.0,4.0,62,0.00,,,0.01,,2013-05-07 18:11:00,
2013-05-07 11:52:00,70.0,55.0,29.99,West,269,3.0,6.0,59,0.00,,,0.01,,2013-05-07 18:52:00,
2013-05-07 12:02:00,71.0,55.0,29.99,North,2,2.0,7.0,57,0.00,,,0.01,,2013-05-07 19:02:00,
2013-05-07 12:11:00,71.0,55.0,29.99,North,2,2.0,7.0,57,0.00,,,0.01,,2013-05-07 19:11:00,
2013-05-07 12:21:00,71.0,55.0,29.99,North,2,2.0,7.0,57,0.00,,,0.01,,2013-05-07 19:21:00,
2013-05-07 12:31:00,71.0,55.0,29.99,North,2,2.0,7.0,57,0.00,,,0.01,,2013-05-07 19:31:00,
2013-05-07 12:41:00,71.0,55.0,29.99,North,2,2.0,7.0,57,0.00,,,0.01,,2013-05-07 19:41:00,
2013-05-07 13:22:00,69.0,54.0,29.98,West,274,5.0,9.0,58,0.00,,,0.01,,2013-05-07 20:22:00,
2013-05-07 13:32:00,69.0,54.0,29.98,West,274,5.0,9.0,58,0.00,,,0.01,,2013-05-07 20:32:00,
2013-05-07 13:42:00,69.0,54.0,29.98,West,274,5.0,9.0,58,0.00,,,0.01,,2013-05-07 20:42:00,
2013-05-07 13:52:00,69.0,55.0,29.98,WNW,296,4.0,11.0,62,0.00,,,0.01,,2013-05-07 20:52:00,
2013-05-07 14:01:00,69.0,56.0,29.98,West,264,4.0,10.0,64,0.00,,,0.01,,2013-05-07 21:01:00,
2013-05-07 14:11:00,69.0,56.0,29.98,West,264,4.0,10.0,64,0.00,,,0.01,,2013-05-07 21:11:00,
2013-05-07 14:21:00,69.0,56.0,29.98,West,264,4.0,10.0,64,0.00,,,0.01,,2013-05-07 21:21:00,
2013-05-07 14:32:00,69.0,56.0,29.97,West,270,3.0,7.0,64,0.00,,,0.01,,2013-05-07 21:32:00,
2013-05-07 14:42:00,69.0,56.0,29.97,West,270,3.0,7.0,64,0.00,,,0.01,,2013-05-07 21:42:00,
2013-05-07 14:53:00,69.0,56.0,29.97,NE,45,4.0,6.0,63,0.00,,,0.01,,2013-05-07 21:53:00,
2013-05-07 15:02:00,69.0,56.0,29.97,NE,45,4.0,6.0,63,0.00,,,0.01,,2013-05-07 22:02:00,
2013-05-07 15:13:00,69.0,56.0,29.97,NE,45,4.0,6.0,63,0.00,,,0.01,,2013-05-07 22:13:00,
2013-05-07 15:22:00,69.0,55.0,29.96,SW,225,2.0,5.0,61,0.00,,,0.01,,2013-05-07 22:22:00,
2013-05-07 15:32:00,69.0,55.0,29.97,SW,225,2.0,5.0,61,0.00,,,0.01,,2013-05-07 22:32:00,
2013-05-07 15:42:00,69.0,55.0,29.97,SW,225,2.0,5.0,61,0.00,,,0.01,,2013-05-07 22:42:00,
2013-05-07 15:52:00,69.0,55.0,29.97,SW,225,2.0,5.0,61,0.00,,,0.01,,2013-05-07 22:52:00,
2013-05-07 16:01:00,69.0,54.0,29.96,North,1,4.0,11.0,59,0.00,,,0.01,,2013-05-07 23:01:00,
2013-05-07 16:11:00,69.0,54.0,29.96,North,1,4.0,11.0,59,0.00,,,0.01,,2013-05-07 23:11:00,
2013-05-07 16:21:00,68.0,55.0,29.96,NW,320,5.0,13.0,63,0.00,,,0.00,,2013-05-07 23:21:00,
2013-05-07 16:32:00,68.0,56.0,29.96,SSE,155,6.0,11.0,65,0.00,,,0.00,,2013-05-07 23:32:00,
2013-05-07 16:41:00,68.0,56.0,29.96,SSE,155,6.0,11.0,65,0.00,,,0.00,,2013-05-07 23:41:00,
2013-05-07 16:52:00,68.0,56.0,29.96,SSE,155,6.0,11.0,65,0.00,,,0.00,,2013-05-07 23:52:00,
2013-05-07 17:01:00,68.0,56.0,29.96,SSE,155,6.0,11.0,65,0.00,,,0.00,,2013-05-08 00:01:00,
2013-05-07 17:11:00,68.0,56.0,29.96,SSE,155,6.0,11.0,65,0.00,,,0.00,,2013-05-08 00:11:00,
2013-05-07 17:52:00,63.0,57.0,29.98,West,278,4.0,7.0,80,0.00,,,0.00,,2013-05-08 00:52:00,
2013-05-07 18:02:00,63.0,56.0,29.98,NW,323,3.0,6.0,79,0.00,,,0.00,,2013-05-08 01:02:00,
2013-05-07 18:11:00,63.0,56.0,29.98,NW,323,3.0,6.0,79,0.00,,,0.00,,2013-05-08 01:11:00,
2013-05-07 18:21:00,63.0,56.0,29.98,NW,323,3.0,6.0,79,0.00,,,0.00,,2013-05-08 01:21:00,
2013-05-07 18:31:00,63.0,56.0,29.98,NW,323,3.0,6.0,79,0.00,,,0.00,,2013-05-08 01:31:00,
2013-05-07 18:42:00,63.0,56.0,29.98,NW,323,3.0,6.0,79,0.00,,,0.00,,2013-05-08 01:42:00,
2013-05-07 19:01:00,62.0,55.0,29.98,NNW,344,3.0,7.0,79,0.00,,,0.00,,2013-05-08 02:01:00,
2013-05-07 19:12:00,62.0,55.0,29.98,NNW,344,3.0,7.0,79,0.00,,,0.00,,2013-05-08 02:12:00,
2013-05-07 19:22:00,62.0,55.0,29.98,NW,326,2.0,6.0,79,0.00,,,0.00,,2013-05-08 02:22:00,
2013-05-07 19:31:00,62.0,55.0,29.98,NW,326,2.0,6.0,79,0.00,,,0.00,,2013-05-08 02:31:00,
2013-05-07 19:42:00,62.0,55.0,29.98,NW,326,2.0,6.0,79,0.00,,,0.00,,2013-05-08 02:42:00,
2013-05-07 19:52:00,62.0,55.0,29.98,NW,326,2.0,6.0,79,0.00,,,0.00,,2013-05-08 02:52:00,
2013-05-07 20:01:00,58.0,55.0,30.00,North,357,1.0,5.0,89,0.00,,,0.00,,2013-05-08 03:01:00,
2013-05-07 20:11:00,58.0,55.0,30.00,North,357,1.0,5.0,89,0.00,,,0.00,,2013-05-08 03:11:00,
2013-05-07 20:21:00,57.0,54.0,30.00,NE,42,0.0,3.0,91,0.00,,,0.00,,2013-05-08 03:21:00,
2013-05-07 20:32:00,57.0,54.0,30.00,NE,42,0.0,3.0,91,0.00,,,0.00,,2013-05-08 03:32:00,
2013-05-07 20:43:00,57.0,54.0,30.00,NE,42,0.0,3.0,91,0.00,,,0.00,,2013-05-08 03:43:00,
2013-05-07 20:52:00,57.0,54.0,30.00,NE,42,0.0,3.0,91,0.00,,,0.00,,2013-05-08 03:52:00,
2013-05-07 21:02:00,54.0,53.0,30.02,North,10,1.0,4.0,98,0.00,,,0.00,,2013-05-08 04:02:00,
2013-05-07 21:12:00,54.0,53.0,30.02,North,10,1.0,4.0,98,0.00,,,0.00,,2013-05-08 04:12:00,
2013-05-07 21:22:00,54.0,54.0,30.02,NW,318,2.0,5.0,99,0.00,,,0.00,,2013-05-08 04:22:00,
2013-05-07 21:33:00,54.0,54.0,30.02,NW,318,2.0,5.0,99,0.00,,,0.00,,2013-05-08 04:33:00,
2013-05-07 21:42:00,54.0,54.0,30.02,NW,318,2.0,5.0,99,0.00,,,0.00,,2013-05-08 04:42:00,
2013-05-07 21:53:00,54.0,54.0,30.02,NW,318,2.0,5.0,99,0.00,,,0.00,,2013-05-08 04:53:00,
2013-05-07 22:02:00,53.0,53.0,30.03,NE,46,0.0,2.0,99,0.00,,,0.00,,2013-05-08 05:02:00,
2013-05-07 22:12:00,53.0,53.0,30.03,NE,46,0.0,2.0,99,0.00,,,0.00,,2013-05-08 05:12:00,
2013-05-07 22:22:00,53.0,53.0,30.04,North,0,0.0,2.0,99,0.00,,,0.00,,2013-05-08 05:22:00,
2013-05-07 22:32:00,53.0,53.0,30.04,North,0,0.0,2.0,99,0.00,,,0.00,,2013-05-08 05:32:00,
2013-05-07 22:42:00,53.0,53.0,30.04,North,0,0.0,2.0,99,0.00,,,0.00,,2013-05-08 05:42:00,
2013-05-07 22:52:00,53.0,53.0,30.04,North,0,0.0,2.0,99,0.00,,,0.00,,2013-05-08 05:52:00,
2013-05-07 23:01:00,53.0,53.0,30.05,North,0,0.0,2.0,99,0.00,,,0.00,,2013-05-08 06:01:00,
2013-05-07 23:11:00,53.0,53.0,30.05,North,0,0.0,2.0,99,0.00,,,0.00,,2013-05-08 06:11:00,
2013-05-07 23:21:00,53.0,53.0,30.05,North,0,0.0,2.0,99,0.00,,,0.00,,2013-05-08 06:21:00,
2013-05-07 23:32:00,53.0,53.0,30.05,North,0,0.0,2.0,99,0.00,,,0.00,,2013-05-08 06:32:00,
2013-05-07 23:41:00,53.0,53.0,30.05,North,0,0.0,2.0,99,0.00,,,0.00,,2013-05-08 06:41:00,
2013-05-07 23:52:00,53.0,53.0,30.04,NNE,29,0.0,2.0,99,0.00,,,0.00,,2013-05-08 06:52:00,